When you browse on this site, cookies collect data to enhance your experience and personalize the content and advertising you see.
Visit our Privacy Policy to learn more. By continuing to use the site, you agree to this use of cookies and data.
  • In Belgien
  • Länderverzeichnis
  • Für 7 Tage
  • Wassertemperatur
  • Wetterkarte
  • Widgets
  • user-avatar
    Anmelden

    Stündliche Wetter Brest

    Heute, 1 Juni, Montag

    Zeit Temperatur Niederschläge Wind Luftdruck Luftfeuchtigkeit
    00:00 +11°C° 0 mm 4 m/S 749 mmHg 87%
    01:00 +10°C° 0 mm 4 m/S 749 mmHg 86%
    02:00 +10°C° 0 mm 4 m/S 749 mmHg 89%
    03:00 +8°C° 0 mm 4 m/S 749 mmHg 88%
    04:00 +8°C° 0 mm 4 m/S 749 mmHg 88%
    05:00 +7°C° 0 mm 4 m/S 749 mmHg 87%
    06:00 +8°C° 0 mm 4 m/S 749 mmHg 82%
    07:00 +10°C° 0 mm 5 m/S 750 mmHg 77%
    08:00 +12°C° 0 mm 5 m/S 750 mmHg 72%
    09:00 +13°C° 0 mm 6 m/S 750 mmHg 67%
    10:00 +13°C° 0 mm 6 m/S 750 mmHg 62%
    11:00 +14°C° 0 mm 7 m/S 750 mmHg 57%
    12:00 +14°C° 0.1 mm 7 m/S 750 mmHg 57%
    13:00 +14°C° 0.1 mm 7 m/S 750 mmHg 57%
    14:00 +14°C° 0.1 mm 7 m/S 750 mmHg 57%
    15:00 +12°C° 0 mm 7 m/S 750 mmHg 58%
    16:00 +13°C° 0 mm 6 m/S 750 mmHg 59%
    17:00 +13°C° 0 mm 6 m/S 750 mmHg 59%
    18:00 +12°C° 0 mm 5 m/S 750 mmHg 64%
    19:00 +11°C° 0 mm 4 m/S 749 mmHg 69%
    20:00 +11°C° 0 mm 3 m/S 749 mmHg 73%
    21:00 +10°C° 0 mm 3 m/S 749 mmHg 75%
    22:00 +9°C° 0 mm 3 m/S 749 mmHg 77%
    23:00 +8°C° 0 mm 3 m/S 749 mmHg 79%

    Morgen, 2 Juni, Dienstag

    Zeit Temperatur Niederschläge Wind Luftdruck Luftfeuchtigkeit
    00:00 +7°C° 0 mm 3 m/S 748 mmHg 80%
    01:00 +7°C° 0 mm 3 m/S 748 mmHg 81%
    02:00 +6°C° 0 mm 4 m/S 748 mmHg 82%
    03:00 +6°C° 0 mm 4 m/S 747 mmHg 82%
    04:00 +6°C° 0 mm 4 m/S 747 mmHg 81%
    05:00 +6°C° 0 mm 5 m/S 746 mmHg 81%
    06:00 +7°C° 0 mm 6 m/S 746 mmHg 78%
    07:00 +8°C° 0 mm 7 m/S 746 mmHg 74%
    08:00 +10°C° 0 mm 7 m/S 746 mmHg 71%
    09:00 +11°C° 0 mm 7 m/S 746 mmHg 69%
    10:00 +11°C° 0 mm 7 m/S 745 mmHg 68%
    11:00 +12°C° 0 mm 7 m/S 745 mmHg 66%
    12:00 +14°C° 0.1 mm 7 m/S 745 mmHg 67%
    13:00 +14°C° 0.1 mm 7 m/S 744 mmHg 67%
    14:00 +14°C° 0.1 mm 6 m/S 744 mmHg 68%
    15:00 +12°C° 0.3 mm 7 m/S 744 mmHg 73%
    16:00 +11°C° 0.3 mm 7 m/S 744 mmHg 78%
    17:00 +10°C° 0.3 mm 7 m/S 743 mmHg 83%
    18:00 +10°C° 0.1 mm 6 m/S 743 mmHg 83%
    19:00 +10°C° 0.1 mm 6 m/S 743 mmHg 82%
    20:00 +9°C° 0.1 mm 5 m/S 743 mmHg 82%
    21:00 +9°C° 0.1 mm 5 m/S 742 mmHg 84%
    22:00 +9°C° 0.1 mm 5 m/S 742 mmHg 86%
    23:00 +8°C° 0.1 mm 5 m/S 742 mmHg 89%

    übermorgen, 3 Juni, Mittwoch

    Zeit Temperatur Niederschläge Wind Luftdruck Luftfeuchtigkeit
    00:00 +8°C° 0.3 mm 5 m/S 742 mmHg 91%
    01:00 +8°C° 0.3 mm 4 m/S 742 mmHg 93%
    02:00 +8°C° 0.3 mm 4 m/S 742 mmHg 95%
    03:00 +8°C° 0.2 mm 4 m/S 741 mmHg 95%
    04:00 +8°C° 0.2 mm 4 m/S 741 mmHg 95%
    05:00 +9°C° 0.2 mm 3 m/S 741 mmHg 95%
    06:00 +9°C° 0.1 mm 3 m/S 741 mmHg 92%
    07:00 +10°C° 0.1 mm 3 m/S 741 mmHg 90%
    08:00 +10°C° 0.1 mm 3 m/S 741 mmHg 88%
    09:00 +11°C° 0.5 mm 3 m/S 741 mmHg 84%
    10:00 +12°C° 0.5 mm 4 m/S 741 mmHg 80%
    11:00 +13°C° 0.5 mm 4 m/S 741 mmHg 77%
    12:00 +13°C° 0.6 mm 4 m/S 741 mmHg 75%
    13:00 +14°C° 0.6 mm 4 m/S 741 mmHg 74%
    14:00 +14°C° 0.6 mm 3 m/S 740 mmHg 72%
    15:00 +14°C° 0.6 mm 3 m/S 740 mmHg 73%
    16:00 +14°C° 0.6 mm 3 m/S 740 mmHg 74%
    17:00 +14°C° 0.6 mm 3 m/S 740 mmHg 75%
    18:00 +13°C° 0.2 mm 3 m/S 739 mmHg 79%
    19:00 +13°C° 0.2 mm 2 m/S 739 mmHg 83%
    20:00 +12°C° 0.2 mm 2 m/S 739 mmHg 87%
    21:00 +10°C° 0 mm 2 m/S 739 mmHg 89%
    22:00 +10°C° 0 mm 1 m/S 739 mmHg 91%
    23:00 +9°C° 0 mm 1 m/S 739 mmHg 93%

    4 Juni, Donnerstag

    Zeit Temperatur Niederschläge Wind Luftdruck Luftfeuchtigkeit
    00:00 +9°C° 0 mm 1 m/S 739 mmHg 94%
    01:00 +8°C° 0 mm 1 m/S 739 mmHg 95%
    02:00 +8°C° 0 mm 1 m/S 739 mmHg 95%
    03:00 +8°C° 0 mm 1 m/S 739 mmHg 96%
    04:00 +8°C° 0 mm 1 m/S 739 mmHg 96%
    05:00 +8°C° 0 mm 1 m/S 739 mmHg 96%
    06:00 +10°C° 0 mm 1 m/S 739 mmHg 93%
    07:00 +11°C° 0 mm 1 m/S 739 mmHg 89%
    08:00 +13°C° 0 mm 1 m/S 739 mmHg 85%
    09:00 +14°C° 0.5 mm 1 m/S 739 mmHg 81%
    10:00 +15°C° 0.5 mm 2 m/S 738 mmHg 78%
    11:00 +16°C° 0.5 mm 2 m/S 738 mmHg 74%
    12:00 +16°C° 0.7 mm 2 m/S 738 mmHg 71%
    13:00 +17°C° 0.7 mm 3 m/S 738 mmHg 68%
    14:00 +18°C° 0.7 mm 3 m/S 738 mmHg 66%
    15:00 +18°C° 0.5 mm 3 m/S 738 mmHg 67%
    16:00 +18°C° 0.5 mm 3 m/S 738 mmHg 68%
    17:00 +18°C° 0.5 mm 3 m/S 738 mmHg 69%
    18:00 +17°C° 0.3 mm 3 m/S 737 mmHg 74%
    19:00 +16°C° 0.3 mm 2 m/S 737 mmHg 78%
    20:00 +14°C° 0.3 mm 2 m/S 737 mmHg 83%
    21:00 +13°C° 0 mm 1 m/S 737 mmHg 85%
    22:00 +13°C° 0 mm 1 m/S 738 mmHg 87%
    23:00 +12°C° 0 mm 1 m/S 738 mmHg 89%

    5 Juni, Freitag

    Zeit Temperatur Niederschläge Wind Luftdruck Luftfeuchtigkeit
    00:00 +11°C° 0 mm 1 m/S 738 mmHg 89%
    01:00 +11°C° 0 mm 1 m/S 738 mmHg 90%
    02:00 +10°C° 0 mm 1 m/S 738 mmHg 91%
    03:00 +10°C° 0 mm 1 m/S 737 mmHg 91%
    04:00 +9°C° 0 mm 2 m/S 737 mmHg 92%
    05:00 +9°C° 0 mm 2 m/S 737 mmHg 92%
    06:00 +12°C° 0 mm 2 m/S 737 mmHg 88%
    07:00 +13°C° 0 mm 3 m/S 737 mmHg 84%
    08:00 +15°C° 0 mm 4 m/S 738 mmHg 80%
    09:00 +17°C° 0 mm 4 m/S 738 mmHg 76%
    10:00 +19°C° 0 mm 5 m/S 738 mmHg 73%
    11:00 +21°C° 0 mm 6 m/S 738 mmHg 69%
    12:00 +21°C° 0.8 mm 6 m/S 737 mmHg 72%
    13:00 +21°C° 0.8 mm 6 m/S 737 mmHg 75%
    14:00 +21°C° 0.8 mm 5 m/S 737 mmHg 78%
    15:00 +22°C° 0.7 mm 5 m/S 737 mmHg 78%
    16:00 +22°C° 0.7 mm 5 m/S 737 mmHg 78%
    17:00 +22°C° 0.7 mm 5 m/S 737 mmHg 78%
    18:00 +21°C° 0.7 mm 4 m/S 737 mmHg 82%
    19:00 +20°C° 0.7 mm 4 m/S 737 mmHg 86%
    20:00 +19°C° 0.7 mm 3 m/S 737 mmHg 89%
    21:00 +18°C° 0.3 mm 3 m/S 738 mmHg 91%
    22:00 +17°C° 0.3 mm 3 m/S 738 mmHg 93%
    23:00 +17°C° 0.3 mm 3 m/S 738 mmHg 94%

    6 Juni, Samstag

    Zeit Temperatur Niederschläge Wind Luftdruck Luftfeuchtigkeit
    00:00 +16°C° 0.1 mm 2 m/S 738 mmHg 95%
    01:00 +16°C° 0.1 mm 2 m/S 738 mmHg 95%
    02:00 +15°C° 0.1 mm 2 m/S 738 mmHg 95%
    03:00 +15°C° 0 mm 2 m/S 739 mmHg 95%
    04:00 +15°C° 0 mm 1 m/S 739 mmHg 95%
    05:00 +15°C° 0 mm 1 m/S 739 mmHg 95%
    06:00 +15°C° 0.5 mm 1 m/S 739 mmHg 96%
    07:00 +15°C° 0.5 mm 1 m/S 740 mmHg 96%
    08:00 +15°C° 0.5 mm 1 m/S 740 mmHg 97%
    09:00 +15°C° 1.5 mm 2 m/S 740 mmHg 96%
    10:00 +15°C° 1.5 mm 2 m/S 741 mmHg 96%
    11:00 +16°C° 1.5 mm 3 m/S 741 mmHg 96%
    12:00 +14°C° 0.7 mm 3 m/S 741 mmHg 95%
    13:00 +13°C° 0.7 mm 4 m/S 741 mmHg 95%
    14:00 +12°C° 0.7 mm 5 m/S 741 mmHg 94%
    15:00 +12°C° 0 mm 5 m/S 742 mmHg 92%
    16:00 +13°C° 0 mm 4 m/S 742 mmHg 89%
    17:00 +13°C° 0 mm 4 m/S 742 mmHg 87%
    18:00 +13°C° 0 mm 3 m/S 742 mmHg 87%
    19:00 +12°C° 0 mm 3 m/S 742 mmHg 88%
    20:00 +13°C° 0 mm 2 m/S 742 mmHg 88%
    21:00 +13°C° 0 mm 2 m/S 743 mmHg 88%
    22:00 +12°C° 0 mm 2 m/S 743 mmHg 88%
    23:00 +12°C° 0 mm 2 m/S 743 mmHg 88%
    Mehr zeigen